Regional Weather Roundup
Issued by NWS

Home | Current Version | Previous Version | Graphics & Text | Print | Product List | Glossary On
Versions: 1 2 3 4 5 6 7 8 9 10 11 12 13 14 15 16 17 18 19 20 21 22 23 24 25 26 27 28
000
ASUS45 KTFX 092210
RWRMT
MONTANA REGIONAL WEATHER ROUNDUP
NATIONAL WEATHER SERVICE GREAT FALLS MT
300 PM MST FRI DEC 09 2016

NOTE: "FAIR" INDICATES FEW OR NO CLOUDS BELOW 12000 FEET WITH NO
SIGNIFICANT WEATHER AND/OR OBSTRUCTIONS TO VISIBILITY.

MTZ001>007-043-092300-
WEST OF THE DIVIDE

CITY           SKY/WX    TMP DP  RH WIND       PRES   REMARKS
KALISPELL      LGT SNOW   8   0  69 N8        30.15F WCI  -4
MISSOULA       LGT SNOW  16  10  77 CALM      30.10F
BUTTE          CLOUDY    17   9  70 CALM      29.96S
MULLAN PASS    SNOW      17  15  92 S3        29.86F VSB 1/2
ANACONDA         N/A     10   3  72 CALM      29.99F
DEER LODGE       N/A     12   3  67 CALM      30.03F
EUREKA           N/A      7   0  72 CALM      30.21F
HAMILTON         N/A     16   9  73 CALM      30.05F
LIBBY            N/A     12   7  79 CALM      30.16F
PLAINS           N/A     17   6  62 CALM      30.16F
RONAN            N/A     14   8  77 N2        30.15R
THOMPSON FALLS   N/A     17   8  67 E8        30.16F WCI   7
$$

MTZ008-052>055-092300-
SOUTHWEST MONTANA

CITY           SKY/WX    TMP DP  RH WIND       PRES   REMARKS
BOZEMAN        CLOUDY     8   1  73 CALM      30.08S
DILLON         CLOUDY    13   5  70 CALM      29.99F
W YELLOWSTONE  CLOUDY    25  23  93 SW9       30.00S FOG     WCI  15
ENNIS          SUNNY     16  10  79 CALM      30.01S
THREE FORKS      N/A      9 -47   6 CALM      30.07F
TWIN BRIDGES     N/A      9  -2  61 NW6       30.00F WCI  -1
$$

MTZ009-010-012-014-046-048-049-054-092300-
EAST SLOPES AND CENTRAL MONTANA

CITY           SKY/WX    TMP DP  RH WIND       PRES   REMARKS
CUT BANK       CLOUDY     0  -6  76 SE8       30.15F WCI -14
GREAT FALLS    CLOUDY     1  -7  68 E6        30.16F WCI -10
MALMSTROM AFB  CLOUDY     1  -5  76 NE6       30.19F WCI -11
HELENA         CLOUDY     7  -4  60 CALM      30.12F
AUGUSTA          N/A     -3  -8  78 S5        30.08F
BOWMANS CRNR     N/A     -5  -8  85 NE7       30.07F WCI -19
CHOTEAU          N/A      1  -8  66 MISG      30.15S
CONRAD           N/A      2  -4  75 NE6       30.17F WCI  -9
FAIRFIELD        N/A     -1  -8  72 E3        30.13F
POWER          PTSUNNY    0  -6  74 E6        30.14F WCI -11
RAYNESFORD     CLOUDY     1  -5  74 E12       30.12F WCI -15
ULM              N/A      0  -8  71 N6        30.17F WCI -12
$$

MTZ011-013-016-021-045-047-050-051-092300-
NORTH CENTRAL MONTANA

CITY           SKY/WX    TMP DP  RH WIND       PRES   REMARKS
HAVRE          MOCLDY     7  -2  66 E8        30.31F WCI  -6
LEWISTOWN      LGT SNOW   2  -4  76 E9        30.12F WCI -13
N BAR RANCH    CLOUDY     3  -4  72 S6G13     30.13F WCI  -8
CHINOOK          N/A      7  -2  66 E10       30.35F WCI  -8
DENTON         FLURRIES   4  -1  80 E14       30.15F WCI -14
FORT BENTON      N/A      7  -4  61 N5        30.28
GEYSER         FLURRIES   0  -6  77 E6        30.13F WCI -12
GRASS RANGE    FLURRIES   4   0  83 E12       30.14F WCI -13
JUDITH GAP       N/A      0  -4  82 S14       30.08F WCI -18
ROY            FLURRIES   2  -1  88 MISG      30.19F
STANFORD       FLURRIES  -2  -6  82 E3        30.09F
WINIFRED       FLURRIES   2  -1  86 MISG      30.17F
$$

MTZ017>020-022>027-061-062-092300-
NORTHEAST MONTANA

CITY           SKY/WX    TMP DP  RH WIND       PRES   REMARKS
GLASGOW        CLOUDY     0  -5  79 SE7       30.43F WCI -13
JORDAN           N/A      4  -2  76 E8        30.37F WCI  -9
SIDNEY         CLEAR      2  -8  63 E5        30.53S
WOLF POINT     CLEAR      2  -8  63 E9        30.51F WCI -13
PLENTYWOOD       N/A     -2  -9  71 E5        30.48S
POPLAR           N/A     -2  -9  71 E7        30.51F WCI -16
SCOBEY           N/A     -1 -13  56 CALM      30.39F
$$

MTZ028>42-056>058-092300-
SOUTHCENTRAL AND SOUTHEAST MONTANA

CITY           SKY/WX    TMP DP  RH WIND       PRES   REMARKS
BAKER          CLOUDY     0  -6  76 E10       30.37F WCI -16
BILLINGS       CLOUDY     5  -1  76 NE6       30.21F WCI  -6
LIVINGSTON     CLOUDY     7  -1  70 E7        30.08S WCI  -5
MILES CITY     LGT SNOW   4  -3  73 E8        30.38S WCI  -9
BIG TIMBER     MOSUNNY    5   0  78 SE8       30.13S WCI  -8
FORSYTH          N/A      3   0  85 E10       30.35F WCI -12
HARLOWTON      FLURRIES   2  -2  83 E6        30.12F WCI  -9
LAUREL           N/A      6  -5  60 N3        30.16F
$$

REGIONAL REPORTS...DAKOTAS

CITY           SKY/WX    TMP DP  RH WIND       PRES   REMARKS
WILLISTON      PTCLDY    -3 -12  65 NE6       30.53F WCI -15
MINOT          CLEAR     -8 -14  74 W10       30.53F WCI -26
DICKINSON      CLEAR     -5 -10  79 W3        30.41
BEACH            N/A     -4  -9  77 E5        30.44F
CROSBY           N/A     -8 -13  77 NW7       30.55F WCI -22
TIOGA            N/A     -8 -11  84 N6        30.49F WCI -21
WATFORD CITY     N/A     -4  -9  77 CALM      30.51S
BISMARCK       MOCLDY    -1  -7  75 W7        30.54F WCI -14
GRAND FORKS    PTCLDY     0  -9  65 NW7       30.56F WCI -13
FARGO          CLEAR      6  -3  66 NW10      30.55F WCI  -9
BUFFALO SD       N/A      4  -4  69 E9        30.28S WCI -10
RAPID CITY     FLURRIES   3  -3  76 N8        30.34S WCI -10
$$

REGIONAL REPORTS...WYOMING/IDAHO/WASHINGTON

CITY           SKY/WX    TMP DP  RH WIND       PRES   REMARKS
GILLETTE       CLOUDY     7   1  76 CALM      30.16F
SHERIDAN       CLOUDY     9   0  67 W3        30.19R
BUFFALO WY     CLOUDY     7  -1  70 SE9       30.11R WCI  -7
CODY           CLOUDY    10   0  63 CALM      30.07F
YELLOWSTONE LA   N/A     25  23  92 VRB3      29.98F
IDAHO FALLS    CLOUDY    23  20  88 CALM      30.09F FOG
SALMON         CLOUDY    18  16  93 CALM      30.07F
BOISE          MIX PCPN  31  28  89 N8        30.07F FOG     WCI  23
SPOKANE        LGT SNOW  19  15  84 NE8       30.03F VSB 3/4 WCI   9
$$

REGIONAL REPORTS...ALBERTA

CITY           SKY/WX    TMP DP  RH WIND       PRES   REMARKS
EDMONTON       CLEAR     -2 -13  60 SE12      30.36F WCI -20
CALGARY        CRYSTALS  -6 -13  71 SE14      30.15F WCI -26
LETHBRIDGE     MOCLDY    -2  -8  78 NE9       30.25F WCI -18
MEDICINE HAT   MOCLDY     0  -6  78 E7        30.37F WCI -13
WATERTON GATE    N/A     -2 -11  65 NE5         N/A
CARDSTON         N/A     -4 -11  71 N2          N/A
MILK RIVER       N/A      3  -6  66 SE8         N/A  WCI -10
ONEFOUR          N/A      0  -4  85 E8          N/A  WCI -15
$$

REGIONAL REPORTS...SASKATCHEWAN

CITY           SKY/WX    TMP DP  RH WIND       PRES   REMARKS
SWIFT CURRENT  CLOUDY    -6  -9  84 E9        30.36F WCI -22
REGINA         CRYSTALS  -8 -13  77 W7        30.51F WCI -22
SASKATOON      PTCLDY    -6 -13  71 N2        30.55F
CYPRESS HILLS    N/A     -6 -11  77 SE5         N/A
VAL MARIE        N/A      1  -6  71 SE6         N/A  WCI -10
ROCKGLEN         N/A     -2  -8  78 SW2         N/A
ASSINIBOIA       N/A     -2 -11  65 SE9         N/A  WCI -18
$$




USA.gov is the U.S. government's official web portal to all federal, state and local government web resources and services.